Kalaeloa, HI

9:56 PM HST on August 18, 2017 (GMT -1000)
Kalaeloa (John Rodgers Field)

Weather History for PHJR - November, 2012

Change the Weather History Date:

Monday, November 5, 2012

  Actual Average (PHHI) Record (PHHI)
Temperature  
Mean Temperature 74 °F -  
Max Temperature 84 °F 77 °F 82 °F (1997)
Min Temperature 64 °F 66 °F 64 °F (2002)
Cooling Degree Days 9    
Growing Degree Days 24 (Base 50)    
Moisture  
Dew Point 64 °F    
Average Humidity 70    
Maximum Humidity 90    
Minimum Humidity 44    
Precipitation  
Precipitation 0.00 in - - ()
Sea Level Pressure  
Sea Level Pressure 29.98 in    
Wind  
Wind Speed 3 mph (ENE)    
Max Wind Speed 9 mph    
Max Gust Speed -    
Visibility 10 miles    
Events      
Averages and records for this station are not official NWS values.
T = Trace of Precipitation, MM = Missing Value Source: NWS Daily Summary

Daily Weather History Graph

Daily Weather History Graph

Search for Another Location

Airport or City:

Trip Planner

Search our weather history database for the weather conditions in past years. The results will help you decide how hot, cold, wet, or windy it might be!

Date:

Astronomy

Nov. 05, 2012 Rise Set
Actual Time 6:37 AM HST 5:53 PM HST
Civil Twilight 6:14 AM HST 6:16 PM HST
Nautical Twilight 5:48 AM HST 6:43 PM HST
Astronomical Twilight 5:21 AM HST 7:09 PM HST
Moon 11:40 PM HST (11/5) 12:03 PM HST (11/5)
Length of Visible Light 12h 02m
Length of Day
11h 16m
Waning Gibbous, 61% of the Moon is Illuminated
Nov 5
Waning Gibbous
Nov 6
Last Quarter
Nov 13
New
Nov 20
First Quarter
Nov 28
Full

Hourly Weather History & Observations

Time (HST) Temp. Heat Index Dew Point Humidity Pressure Visibility Wind Dir Wind Speed Gust Speed Precip Events Conditions
12:53 AM 68.0 °F - 63.0 °F 84% 30.02 in 10.0 mi NE 3.5 mph - N/A   Clear
1:53 AM 68.0 °F - 62.1 °F 81% 30.01 in 10.0 mi Calm Calm - N/A   Clear
2:53 AM 66.0 °F - 62.1 °F 87% 30.00 in 10.0 mi Calm Calm - N/A   Clear
3:53 AM 64.9 °F - 62.1 °F 90% 29.98 in 9.0 mi Calm Calm - N/A   Clear
4:53 AM 64.9 °F - 62.1 °F 90% 29.99 in 9.0 mi Calm Calm - N/A   Clear
5:53 AM 64.9 °F - 62.1 °F 90% 29.99 in 10.0 mi Calm Calm - N/A   Clear
6:53 AM 66.0 °F - 62.1 °F 87% 30.00 in 10.0 mi Calm Calm - N/A   Clear
7:53 AM 73.0 °F - 64.9 °F 76% 30.01 in 10.0 mi Calm Calm - N/A   Clear
8:53 AM 77.0 °F - 66.0 °F 69% 30.02 in 10.0 mi Calm Calm - N/A   Partly Cloudy
9:53 AM 79.0 °F - 66.0 °F 64% 30.02 in 10.0 mi Variable 4.6 mph - N/A   Mostly Cloudy
10:53 AM 82.0 °F 83.4 °F 64.0 °F 54% 30.01 in 10.0 mi Variable 5.8 mph - N/A   Scattered Clouds
11:53 AM 84.9 °F 85.0 °F 61.0 °F 44% 29.98 in 10.0 mi Variable 6.9 mph - N/A   Partly Cloudy
12:53 PM 82.9 °F 83.2 °F 60.1 °F 46% 29.96 in 10.0 mi East 9.2 mph - N/A   Clear
1:53 PM 84.0 °F 84.0 °F 60.1 °F 44% 29.93 in 10.0 mi Variable 4.6 mph - N/A   Clear
2:53 PM 82.9 °F 84.4 °F 64.0 °F 53% 29.92 in 10.0 mi Variable 5.8 mph - N/A   Scattered Clouds
3:53 PM 81.0 °F 82.5 °F 64.0 °F 56% 29.92 in 10.0 mi Variable 5.8 mph - N/A   Scattered Clouds
4:53 PM 80.1 °F 81.7 °F 64.0 °F 58% 29.94 in 10.0 mi Variable 6.9 mph - N/A   Clear
5:53 PM 77.0 °F - 64.9 °F 66% 29.95 in 10.0 mi Variable 3.5 mph - N/A   Clear
6:53 PM 75.0 °F - 64.9 °F 71% 29.96 in 10.0 mi Variable 5.8 mph - N/A   Clear
7:53 PM 75.0 °F - 64.9 °F 71% 29.98 in 10.0 mi Calm Calm - N/A   Clear
8:53 PM 75.0 °F - 66.0 °F 73% 29.99 in 10.0 mi ENE 8.1 mph - N/A   Clear
9:53 PM 73.9 °F - 64.9 °F 73% 29.99 in 10.0 mi ENE 4.6 mph - N/A   Clear
10:53 PM 75.0 °F - 66.0 °F 73% 29.99 in 10.0 mi ENE 4.6 mph - N/A   Clear
11:53 PM 73.9 °F - 66.0 °F 76% 29.98 in 10.0 mi Calm Calm - N/A   Clear